Temperature
11 11 11 11 11 11 11 11 11 11 11 11 11 11 11 11 11 11 11 11 11 10 10 10 10 10 10 10 10 10 10 10 10 9 9 9 9 9 10 10 10 10 10
11 11 11 11 11 11 10 10 10 10 11 10 10 10 10 10 10 10 10 10 10 10 10 9 9 9 9 9 9 9 9 9 9 9 9 9 9 9 9 9 9 9 9
10 10 10 10 10 10 10 10 10 10 10 10 10 10 10 10 10 10 10 10 10 10 9 9 9 9 9 9 9 9 9 9 9 9 9 9 9 9 9 9 9 9 9
10 10 9 9 9 9 9 9 9 9 9 9 9 9 9 9 9 9 9 9 9 9 9 9 9 9 8 8 8 8 8 8 8 8 8 8 8 8 8 8 8 8 8
9 9 9 9 9 9 9 9 9 9 9 9 9 9 9 9 9 9 8 9 9 8 8 8 8 8 8 8 8 8 8 8 8 8 8 8 8 8 8 8 8 8 8
8 8 8 8 8 8 8 8 8 8 8 8 8 8 8 8 8 8 8 8 8 8 8 8 8 8 8 8 7 7 7 7 7 7 7 7 7 7 7 8 8 8 8
7 7 7 7 7 7 7 7 7 7 7 7 7 7 7 7 7 7 7 7 7 7 7 7 7 7 7 7 7 7 7 7 7 7 7 7 7 7 7 7 7 7 7
7 7 7 7 7 7 7 6 6 6 6 6 6 6 6 6 6 6 6 6 6 6 6 6 6 6 6 6 6 6 6 6 6 6 6 6 6 6 7 7 7 7 7
6 6 6 6 6 6 6 6 6 5 5 5 5 4 4 4 5 5 6 6 6 6 6 6 6 6 6 6 6 6 6 6 6 6 6 6 6 6 6 6 6 6 6
6 6 6 6 6 5 5 5 5 5 4 4 4 4 3 3 3 3 4 5 5 5 5 5 5 5 5 5 5 5 5 5 5 5 5 5 5 5 5 6 6 6 6
5 5 5 5 5 5 5 5 4 4 4 4 3 3 3 3 2 2 2 3 4 4 4 4 4 4 4 4 4 5 5 5 5 5 5 5 5 5 5 5 5 5 5
5 4 4 4 4 4 4 4 4 4 3 3 3 2 2 2 2 1 1 2 2 3 4 4 4 4 4 4 4 4 4 4 4 4 4 4 4 5 5 5 5 5 5
4 4 4 4 4 4 3 3 3 3 3 2 2 2 2 1 1 1 1 1 1 2 2 3 3 3 3 3 3 3 3 3 3 3 3 4 4 4 4 4 4 4 4
3 3 3 3 3 3 3 2 2 2 2 2 1 1 1 1 1 0 0 0 -0 0 1 2 2 2 2 3 3 3 3 3 3 3 3 3 3 3 3 4 4 4 4
2 3 2 2 2 2 2 2 2 1 1 1 1 1 1 0 0 0 -0 -0 -0 -1 -0 1 1 2 2 2 2 2 2 2 2 3 3 3 3 3 3 3 3 3 3
2 2 2 2 2 2 1 1 1 1 1 0 0 0 0 -0 -0 -0 -0 -0 -1 -1 -1 -0 0 1 1 1 1 1 2 2 2 2 2 2 2 2 2 2 2 2 2
2 2 1 1 1 1 1 1 0 0 -0 -0 -0 -0 -1 -1 -1 -1 -1 -1 -1 -1 -1 -1 -0 0 0 0 1 1 1 1 1 2 2 2 2 2 2 2 2 2 2
1 1 1 1 0 0 0 -0 -0 -0 -1 -1 -1 -1 -1 -1 -1 -1 -1 -1 -1 -2 -2 -2 -1 -1 -1 -0 -0 0 1 1 1 1 1 1 1 1 1 1 1 1 1
0 0 0 -0 -0 -0 -1 -1 -1 -1 -1 -1 -1 -1 -1 -2 -2 -2 -2 -2 -2 -2 -2 -2 -2 -1 -1 -1 -1 -0 -0 0 0 0 0 1 1 1 1 1 1 1 1
-0 -0 -0 -1 -1 -1 -1 -1 -1 -1 -2 -2 -2 -2 -2 -2 -2 -2 -3 -2 -2 -2 -2 -2 -2 -2 -2 -1 -1 -1 -1 -0 -0 -0 -0 0 0 0 0 1 1 1 1
-0 -1 -1 -1 -1 -1 -2 -2 -2 -2 -2 -2 -2 -2 -2 -2 -2 -3 -3 -3 -3 -3 -3 -3 -3 -2 -2 -2 -2 -2 -2 -1 -1 -1 -0 -0 -0 0 0 0 0 0 0
-1 -1 -1 -1 -2 -2 -2 -2 -2 -3 -2 -2 -2 -3 -3 -3 -3 -3 -3 -3 -3 -3 -3 -3 -3 -3 -2 -2 -2 -2 -2 -2 -2 -1 -1 -1 -1 -0 -0 -0 -0 -0 -0
-1 -1 -2 -2 -2 -2 -2 -2 -3 -3 -3 -3 -3 -3 -3 -3 -3 -3 -3 -3 -3 -3 -3 -3 -3 -3 -3 -3 -3 -3 -2 -2 -2 -2 -2 -1 -1 -1 -1 -1 -1 -0 -0
-2 -2 -2 -2 -2 -2 -2 -3 -3 -3 -3 -3 -3 -3 -3 -3 -3 -3 -3 -3 -3 -3 -3 -3 -3 -3 -3 -3 -3 -3 -3 -3 -2 -2 -2 -2 -1 -1 -1 -1 -1 -1 -1
-2 -2 -2 -2 -2 -2 -3 -3 -3 -3 -3 -3 -3 -3 -3 -3 -3 -3 -3 -3 -3 -3 -3 -3 -3 -3 -3 -3 -3 -3 -3 -3 -3 -2 -2 -2 -2 -2 -1 -1 -1 -1 -1
-2 -2 -3 -3 -3 -3 -3 -3 -3 -3 -3 -3 -3 -3 -3 -4 -4 -4 -4 -4 -4 -3 -3 -3 -3 -3 -3 -3 -3 -3 -3 -3 -3 -3 -3 -3 -3 -3 -2 -2 -2 -2 -2
Wind_Speed
4 4 4 4 5 4 4 4 4 3 3 3 2 2 2 2 3 3 3 3 3 3 4 4 4 5 5 5 5 5 5 6 6 6 6 6 7 7 8 8 9 9 9
4 4 3 4 4 4 4 3 3 3 2 2 2 2 2 3 2 3 3 3 4 4 4 4 5 5 5 6 5 5 5 6 6 6 6 7 8 8 9 9 9 10 10
4 4 3 3 4 4 4 4 4 3 3 2 2 3 2 3 3 2 3 3 3 4 4 5 6 6 7 7 7 7 6 7 7 7 7 8 8 9 9 10 10 10 10
4 4 3 2 4 4 4 2 2 2 3 3 3 3 2 2 3 2 2 2 3 3 4 5 6 7 7 8 8 8 8 8 9 9 9 9 10 10 10 10 11 11 11
4 4 2 2 4 4 3 2 2 2 2 3 3 3 3 2 2 2 2 2 3 3 3 5 6 7 8 9 9 9 9 9 9 9 10 10 10 11 11 11 11 11 12
3 3 2 2 3 2 2 2 2 2 2 3 3 4 3 3 2 2 2 1 2 3 3 4 5 6 8 9 10 10 11 11 11 11 11 10 11 11 11 12 12 12 12
2 2 2 2 2 1 1 1 1 2 2 2 2 3 3 3 2 2 1 1 1 2 3 3 4 6 7 8 10 11 12 12 12 12 12 12 12 12 12 12 12 13 12
1 2 1 0 1 0 1 1 1 1 1 2 1 2 3 4 3 3 2 1 2 3 3 4 5 5 6 6 8 11 12 13 13 13 13 13 13 13 13 13 13 12 12
1 1 0 0 0 1 1 1 0 0 1 2 0 0 0 2 3 3 3 2 2 3 3 4 5 6 7 7 7 9 11 13 14 14 14 14 14 14 14 14 14 13 13
2 2 1 1 1 1 1 2 1 1 1 2 2 1 2 2 2 3 3 3 4 4 4 4 5 6 7 7 8 9 11 12 13 14 14 14 15 15 15 14 14 13 13
2 2 2 1 1 2 2 2 2 2 2 2 2 2 2 2 2 3 5 4 4 4 4 4 4 5 6 6 7 9 11 12 12 13 14 14 15 15 15 14 14 14 14
2 2 2 2 2 2 3 3 3 3 3 3 3 2 2 2 3 3 5 6 6 5 5 4 3 4 5 6 8 11 11 12 12 13 13 14 14 14 14 14 14 14 13
2 3 2 2 3 3 3 3 3 3 3 4 4 3 3 4 3 4 5 6 7 6 4 3 3 4 5 6 8 10 10 12 12 13 13 13 13 13 14 14 14 14 14
3 3 3 3 3 3 3 3 3 3 3 4 4 3 3 3 3 4 5 5 7 6 4 5 3 3 4 7 8 10 9 12 13 13 14 13 13 13 13 13 13 13 14
3 3 3 4 3 3 3 3 3 4 3 3 4 4 4 3 3 4 4 4 5 8 8 5 3 3 5 7 9 9 9 12 13 14 14 13 13 13 13 13 13 13 13
3 3 4 4 4 3 3 3 4 4 3 4 3 4 4 4 3 3 4 4 5 7 8 5 5 5 6 8 10 9 10 12 13 14 14 14 13 13 13 12 12 12 12
3 3 4 4 4 4 4 4 4 4 4 4 4 5 5 5 4 4 4 4 5 5 9 8 5 5 6 7 8 8 9 9 10 13 14 14 13 12 12 11 11 11 11
3 4 4 4 4 4 4 4 5 5 5 5 5 6 6 5 5 5 4 5 5 6 7 10 7 5 6 6 7 7 7 8 9 12 13 14 13 11 11 10 10 10 10
4 4 4 4 5 5 5 5 5 5 6 6 6 7 7 6 7 6 6 6 6 6 6 8 9 6 5 5 6 6 7 6 8 10 11 12 11 10 10 10 10 9 9
4 4 4 4 5 5 5 5 5 5 6 6 7 7 7 7 8 7 7 7 6 6 6 7 8 7 6 5 4 5 6 5 6 7 8 9 9 10 9 9 9 8 8
4 4 4 4 5 4 5 5 5 6 6 6 6 7 7 8 10 8 7 7 6 6 6 7 7 7 6 5 5 4 6 6 6 5 5 5 5 5 6 8 8 7 7
3 3 4 4 5 5 7 9 7 6 6 6 7 7 7 8 9 11 13 12 10 9 8 7 7 8 8 6 5 5 6 6 6 3 3 5 3 4 5 5 7 8 8
3 4 4 4 5 6 9 9 9 6 6 6 6 6 6 7 8 7 10 11 11 13 12 9 9 9 8 6 5 6 6 6 7 4 4 6 4 4 4 6 8 8 7
3 4 4 5 5 6 8 9 9 6 6 6 6 6 7 7 7 7 6 7 7 8 9 8 8 8 7 6 5 6 6 6 6 4 3 4 4 4 4 4 7 6 5
4 4 4 4 5 6 8 8 8 4 4 5 5 5 6 6 9 9 6 6 7 7 7 8 9 8 9 9 7 4 4 4 5 4 2 2 3 3 3 3 3 4 4
4 4 4 4 4 5 7 8 7 3 4 4 4 5 7 7 9 8 6 5 7 6 5 6 6 6 6 7 8 5 5 4 4 3 2 1 2 2 2 2 2 3 3
Wind_Direction
65 56 48 42 33 33 35 30 27 25 22 10 4 6 353 335 332 327 314 315 314 302 296 290 286 281 274 275 271 274 272 270 272 275 276 276 275 274 273 273 272 272 271
73 65 52 42 33 26 22 34 26 17 10 8 352 348 330 309 309 309 304 305 306 304 298 290 292 293 288 279 280 280 276 276 277 278 278 279 280 278 276 274 275 274 273
77 72 61 38 23 22 25 33 26 25 17 3 335 328 319 305 303 292 286 285 288 295 296 295 294 293 294 291 287 284 278 274 276 276 277 277 278 280 280 277 274 272 273
70 71 63 33 21 29 34 33 16 9 1 349 329 315 311 298 289 280 280 278 276 283 288 296 299 295 295 295 292 288 280 276 275 274 274 274 274 276 276 277 275 272 272
58 67 62 32 32 39 37 27 19 8 348 338 324 313 301 289 286 283 273 277 274 278 284 293 295 296 295 293 292 290 286 280 280 277 276 274 274 274 274 273 272 272 273
47 59 54 32 43 48 29 26 14 4 335 328 325 322 306 295 291 278 269 285 292 290 294 303 306 301 294 293 293 291 292 288 284 280 278 277 276 275 273 272 270 269 270
40 50 46 39 51 56 19 15 15 4 351 352 356 337 319 307 302 290 314 329 336 327 330 321 311 301 299 296 295 293 293 292 287 285 281 280 280 278 274 272 271 270 269
17 25 45 17 50 53 17 14 40 14 340 7 22 351 335 331 329 322 318 313 316 339 337 323 315 308 303 304 302 298 295 293 292 289 287 285 282 281 278 275 273 273 272
325 330 289 273 250 174 227 253 196 97 298 308 319 143 326 289 311 305 299 302 315 322 317 316 318 313 307 308 306 304 303 299 297 294 290 289 287 284 283 281 278 274 274
293 293 284 259 248 236 233 243 233 219 213 272 290 277 246 233 270 303 302 309 315 305 299 310 308 309 309 310 310 308 308 304 299 296 294 293 291 289 287 287 285 279 275
294 290 280 261 261 262 249 236 234 234 220 235 249 273 279 280 246 256 283 298 304 285 286 284 291 302 311 310 311 310 311 305 302 299 295 295 295 293 292 292 291 286 279
296 298 294 277 260 260 254 244 231 235 236 242 251 247 249 253 257 255 270 289 295 290 287 272 270 286 302 308 307 310 311 312 307 306 301 297 295 294 294 296 296 292 287
282 279 293 280 272 261 256 251 237 241 236 237 241 251 252 255 259 262 270 283 287 290 284 273 262 281 302 309 307 310 311 313 312 307 304 302 301 299 298 297 296 294 292
263 274 275 273 272 272 271 261 255 247 246 241 250 251 256 258 254 255 261 275 290 288 276 272 279 272 303 307 306 309 313 311 309 307 303 300 297 295 295 295 293 293 291
271 268 264 267 269 271 263 259 260 256 251 248 247 248 256 262 256 259 258 252 264 281 283 272 280 286 303 302 302 304 308 306 304 304 302 298 296 294 292 292 292 291 287
266 262 264 267 269 269 265 258 260 255 250 255 255 256 261 263 260 258 257 259 256 263 274 276 274 287 294 296 296 300 300 303 302 300 298 296 294 294 291 290 291 288 283
265 265 263 264 263 261 261 257 260 257 255 263 266 265 264 261 261 257 255 256 257 258 270 281 275 281 283 286 295 296 296 296 298 298 297 294 291 289 288 288 289 286 285
262 263 262 263 265 266 260 257 260 263 257 262 265 266 266 267 264 262 258 257 258 257 263 278 286 285 279 282 283 285 293 296 295 296 296 293 291 287 286 286 288 287 285
264 268 264 265 270 267 261 259 255 260 259 258 259 258 259 260 262 264 263 261 261 265 262 270 281 282 281 283 288 291 286 286 293 295 294 292 291 291 289 289 287 286 284
266 265 269 270 269 268 263 261 259 262 263 263 262 258 258 257 259 264 266 263 263 265 266 269 276 281 280 280 275 285 294 289 289 296 291 292 294 294 292 291 289 287 287
271 268 272 274 270 267 260 259 263 266 267 268 267 265 263 264 267 270 272 269 267 266 267 270 274 278 278 280 278 278 287 293 286 272 278 284 289 289 291 291 292 290 288
273 271 272 272 275 278 277 277 275 268 267 265 268 272 272 271 273 277 276 276 272 268 265 264 269 269 273 270 269 275 285 291 287 272 276 288 276 275 282 282 288 291 289
271 273 270 269 271 274 281 281 279 276 267 261 260 265 274 276 283 276 279 282 278 271 265 262 265 266 268 268 269 273 273 278 275 278 282 282 280 276 281 281 288 292 291
278 274 274 274 276 279 286 287 288 282 269 262 260 259 264 270 273 279 279 281 278 276 272 267 261 264 266 264 257 262 272 279 281 276 261 272 285 281 287 287 283 289 298
287 283 279 277 282 286 290 291 291 278 272 273 273 270 269 270 277 286 285 284 287 288 285 279 276 272 275 275 272 273 277 282 286 283 259 256 278 292 290 281 292 303 314
283 288 291 288 286 292 298 298 296 277 280 285 283 280 278 280 285 290 283 281 286 292 296 300 294 288 288 284 278 258 249 260 275 277 251 252 262 299 302 286 288 318 322
Height
1528 1528 1528 1528 1527 1527 1527 1527 1526 1526 1526 1526 1526 1525 1525 1525 1525 1525 1524 1524 1524 1524 1524 1524 1524 1523 1523 1523 1522 1522 1521 1521 1520 1519 1519 1518 1517 1517 1516 1516 1515 1515 1514
1526 1526 1526 1526 1526 1525 1525 1525 1525 1524 1524 1523 1523 1523 1523 1523 1522 1522 1522 1522 1522 1521 1521 1521 1521 1521 1520 1520 1519 1519 1518 1518 1517 1517 1516 1515 1515 1514 1513 1513 1512 1511 1511
1525 1524 1524 1524 1524 1524 1523 1523 1522 1522 1521 1521 1521 1520 1520 1520 1520 1519 1519 1519 1518 1518 1518 1518 1518 1517 1517 1517 1516 1516 1515 1515 1514 1513 1513 1512 1511 1510 1510 1509 1508 1508 1507
1523 1523 1522 1522 1522 1521 1521 1520 1520 1519 1519 1518 1518 1517 1517 1517 1517 1516 1516 1516 1515 1515 1515 1515 1514 1514 1514 1513 1513 1512 1512 1511 1511 1510 1509 1508 1507 1507 1506 1505 1504 1504 1504
1521 1520 1520 1520 1519 1519 1518 1518 1517 1517 1516 1515 1515 1514 1514 1514 1513 1513 1513 1513 1512 1512 1512 1511 1511 1510 1510 1509 1509 1508 1508 1507 1507 1506 1505 1504 1503 1503 1502 1501 1500 1500 1499
1518 1518 1518 1517 1517 1516 1516 1515 1515 1514 1514 1513 1512 1511 1511 1510 1510 1510 1510 1509 1509 1509 1508 1507 1507 1506 1506 1506 1505 1504 1504 1503 1502 1502 1501 1500 1499 1498 1497 1496 1496 1495 1495
1516 1515 1515 1515 1514 1514 1513 1512 1512 1511 1511 1510 1509 1508 1507 1507 1506 1506 1506 1506 1506 1505 1505 1504 1503 1502 1502 1501 1500 1500 1499 1499 1498 1497 1497 1496 1495 1494 1493 1492 1491 1491 1490
1513 1513 1512 1512 1511 1511 1510 1510 1509 1508 1508 1507 1507 1505 1504 1504 1503 1503 1503 1503 1502 1502 1501 1500 1499 1498 1497 1496 1496 1495 1495 1494 1493 1493 1492 1491 1491 1490 1489 1488 1487 1486 1486
1511 1510 1510 1509 1508 1508 1507 1507 1506 1506 1505 1505 1505 1505 1503 1501 1500 1499 1499 1499 1498 1498 1497 1496 1495 1494 1493 1492 1491 1491 1490 1489 1489 1488 1487 1486 1486 1485 1484 1483 1482 1481 1481
1507 1507 1507 1506 1506 1505 1504 1504 1503 1503 1502 1502 1502 1502 1502 1500 1499 1495 1494 1495 1495 1494 1493 1492 1491 1490 1489 1488 1487 1486 1485 1484 1484 1483 1482 1481 1480 1479 1479 1478 1477 1476 1475
1504 1503 1503 1503 1502 1501 1501 1500 1500 1499 1499 1498 1498 1498 1498 1497 1496 1495 1491 1489 1489 1489 1489 1488 1487 1486 1485 1483 1482 1481 1480 1479 1478 1477 1476 1475 1474 1473 1473 1472 1471 1470 1469
1500 1500 1499 1499 1498 1498 1497 1497 1496 1496 1495 1495 1494 1494 1493 1493 1492 1491 1488 1485 1484 1483 1483 1483 1482 1481 1480 1479 1478 1476 1475 1474 1473 1472 1471 1470 1469 1468 1467 1466 1465 1464 1463
1496 1495 1495 1495 1494 1494 1493 1492 1492 1491 1491 1490 1490 1489 1489 1489 1488 1487 1486 1482 1480 1478 1477 1477 1477 1476 1475 1474 1473 1471 1470 1469 1467 1466 1465 1464 1463 1462 1461 1460 1459 1458 1458
1492 1492 1491 1491 1490 1489 1489 1488 1487 1487 1486 1486 1485 1485 1484 1484 1483 1483 1482 1480 1476 1474 1472 1471 1471 1471 1470 1469 1468 1466 1465 1464 1462 1461 1460 1459 1458 1457 1455 1455 1454 1453 1452
1488 1488 1487 1486 1485 1484 1484 1483 1482 1482 1481 1481 1480 1480 1479 1478 1478 1477 1477 1477 1476 1471 1467 1466 1466 1466 1465 1464 1463 1461 1460 1458 1457 1456 1454 1453 1452 1451 1450 1449 1448 1447 1446
1484 1484 1483 1482 1481 1480 1479 1478 1477 1477 1476 1476 1475 1474 1474 1473 1472 1472 1471 1471 1470 1468 1463 1460 1461 1461 1460 1459 1458 1456 1454 1453 1452 1450 1449 1447 1446 1445 1444 1443 1442 1441 1440
1480 1479 1478 1477 1476 1475 1474 1473 1473 1472 1472 1471 1470 1469 1468 1468 1467 1467 1466 1465 1464 1463 1459 1455 1456 1455 1454 1453 1452 1451 1449 1447 1446 1445 1443 1442 1440 1439 1438 1437 1436 1435 1434
1476 1475 1474 1472 1471 1470 1469 1469 1468 1467 1467 1466 1465 1464 1463 1463 1462 1461 1460 1459 1458 1457 1455 1451 1449 1449 1449 1448 1446 1445 1443 1442 1440 1439 1437 1436 1434 1433 1432 1431 1430 1429 1428
1471 1470 1469 1468 1467 1466 1465 1464 1463 1462 1461 1461 1460 1459 1458 1458 1456 1456 1455 1453 1452 1451 1450 1447 1444 1444 1443 1442 1441 1439 1438 1436 1435 1433 1432 1431 1429 1428 1426 1425 1424 1423 1423
1467 1465 1464 1463 1462 1461 1460 1459 1459 1457 1456 1455 1455 1454 1453 1452 1451 1450 1449 1448 1447 1445 1444 1442 1440 1439 1438 1437 1436 1434 1432 1431 1429 1428 1427 1425 1424 1423 1421 1420 1419 1418 1417
1462 1461 1460 1459 1458 1457 1456 1455 1454 1453 1451 1450 1449 1449 1448 1447 1445 1444 1443 1442 1441 1440 1439 1437 1435 1434 1432 1431 1430 1429 1427 1425 1424 1423 1421 1420 1419 1417 1416 1415 1414 1413 1412
1458 1457 1456 1454 1453 1452 1451 1451 1450 1448 1447 1445 1444 1443 1442 1441 1440 1439 1438 1437 1437 1435 1433 1432 1430 1429 1427 1427 1426 1425 1423 1421 1418 1418 1416 1415 1414 1412 1411 1410 1409 1408 1407
1454 1453 1452 1450 1449 1448 1447 1446 1445 1444 1442 1441 1439 1438 1437 1436 1435 1434 1432 1431 1430 1429 1429 1427 1425 1423 1423 1422 1422 1420 1419 1417 1415 1414 1413 1410 1409 1407 1407 1406 1405 1404 1403
1450 1449 1448 1446 1445 1444 1443 1442 1441 1439 1438 1436 1435 1433 1432 1431 1430 1429 1427 1426 1424 1423 1422 1421 1420 1419 1418 1418 1417 1416 1415 1413 1411 1410 1409 1406 1404 1403 1403 1402 1401 1400 1400
1447 1445 1444 1443 1441 1440 1439 1437 1436 1435 1433 1432 1431 1429 1428 1426 1425 1424 1423 1421 1419 1418 1417 1416 1415 1414 1413 1413 1413 1412 1410 1409 1406 1405 1404 1403 1401 1400 1399 1398 1397 1397 1396
1443 1442 1441 1439 1438 1436 1435 1434 1433 1431 1429 1428 1427 1425 1424 1423 1421 1420 1418 1417 1415 1413 1412 1410 1410 1409 1409 1408 1408 1407 1406 1405 1403 1401 1400 1399 1398 1397 1395 1395 1394 1394 1393